Location: Caltech
(34.1382°N, 118.1253°W)
Time: 22:09:56
(UTC-08:00)

Cosmos 2251 Rocket - Visible Passes

Search period start: 03 December 2016 00:00
Search period end: 13 December 2016 00:00
Orbit: 764 x 793 km, 74.0° (Epoch: 02 December)

Date Brightness Start Highest point End Pass type
(mag) Time Alt. Az. Time Alt. Az. Time Alt. Az.
03 Dec 3.4 17:57:25 10° NNW 18:02:47 78° ENE 18:08:04 10° SSE visible
04 Dec 3.8 17:23:43 10° N 17:28:52 47° ENE 17:33:57 10° SE visible
04 Dec 6.3 19:07:20 10° WNW 19:10:40 17° W 19:13:59 10° SW visible
05 Dec 5.6 18:32:30 10° NW 18:37:01 28° W 18:41:29 10° SSW visible
06 Dec 6.7 05:45:45 10° SE 05:48:22 14° E 05:50:58 10° ENE visible
06 Dec 4.6 17:58:10 10° NNW 18:03:18 48° WSW 18:08:21 10° S visible
07 Dec 3.7 17:24:09 10° NNW 17:29:30 81° WSW 17:34:47 10° SSE visible
08 Dec 4.7 06:17:12 10° S 06:22:21 51° ESE 06:27:33 10° NNE visible
08 Dec 6.8 18:35:01 10° WNW 18:37:15 13° W 18:39:30 10° WSW visible
09 Dec 5.7 05:44:00 10° SSE 05:48:37 30° E 05:53:15 10° NE visible
09 Dec 6.2 17:59:38 10° NW 18:03:38 22° W 18:07:37 10° SSW visible
10 Dec 6.5 05:11:25 10° SE 05:14:58 18° E 05:18:31 10° NE visible
10 Dec 5.3 17:25:06 10° NW 17:29:57 37° W 17:34:45 10° SSW visible
11 Dec 7.0 04:40:55 10° E 04:41:22 10° E 04:41:49 10° E visible
11 Dec 3.5 06:17:32 10° SSW 06:22:53 74° WNW 06:28:17 10° NNE visible
12 Dec 4.0 05:43:45 10° S 05:49:02 67° ESE 05:54:23 10° NNE visible
